星链-3938 (STARLINK-3938 )

导读

STARLINK-3938是美国SpaceX公司星链星座的组网卫星,于2022年5月13日发射入轨。作为星链低轨互联网星座的组成部分,该卫星运行在近地轨道,依托星座规模化部署,为全球尤其是偏远地区提供高速低延迟宽带互联网服务,同时也可支撑应急通信等特殊场景需求。星链计划总计将部署数万颗卫星,该星是星座扩容过程中的一颗标准组网卫星,助力SpaceX构建全球覆盖的卫星互联网通信网络。

基本信息
目录编号:
52566
目录名称:
STARLINK-3938
国际标识:
2022-051AK
轨道中心:
EARTH
卫星名称:
星链-3938
卫星全名:
星链-3938 (STARLINK-3938 )
卫星状态:
在轨 (已飞行1496 天)
发射日期:
2022-05-13 UTC
国别 :
美国 (US)
星等 :
--
轨道信息
数据来源 国际轨道数据
星历时间: 2026-06-17T07:09:24+0800
14小时前
查看轨道信息
半长轴: 6917.945km
偏心率: 0.0001609
轨道倾角: 53.161°
近地点辐角 77.770°
升交点赤经 48.363°
平近点角 282.347°
近地点: 538.694km
远地点: 540.922km
周期: 95.439分钟
每日圈数: 15.088189
详细信息
固有亮度:
5
最大亮度:
2.5
卫星平台:
Starlink v1.5
覆盖范围:
全球
运营商:
太空探索技术公司
运营商所在国:
美国
制造商(研发单位):
太空探索技术公司
制造商所在国:
美国
使用方式:
暂无
卫星简介
星链(Starlink)计划是由太空探索技术公司(SpaceX)提出的一个巨型低轨卫星互联网星座项目,计划在2019年至2024年间在太空搭建由约1.2万颗卫星组成的“星链”网络,其中1584颗将部署在地球上空550千米处的近地轨道,并从2020年开始工作。该卫星仍在工作。
2D轨道图
3D轨道图
轨道高度分析图
轨道倾角分析图
轨道综合分析图
查看轨道综合分析图